Tracking 20040 objects as of 19-Nov-2019
Live streaming from Space Station
objects crossing your sky now

INSAT 3B

Track INSAT 3B now!
INSAT 3B is classified as:


NORAD ID: 26108
Int'l Code: 2000-016B
Perigee: 35,934.1 km
Apogee: 36,000.3 km
Inclination: 6.0 °
Period: 1,445.0 minutes
Semi major axis: 42338 km
RCS: 5.0119 m2 (large)
Launch date: March 21, 2000
Source: India (IND)
Launch site: FRENCH GUIANA (FRGUI)

Voice, data and fax transmissions.
aabbcc
Your satellite tracking list
Your tracking list is empty




NASA's NSSDC Master Catalog

Two Line Element Set (TLE):
1 26108U 00016B   19321.80651667 -.00000205  00000-0  00000+0 0  9996
2 26108   5.9733  62.1730 0007817 194.3533 193.1665  0.99656187 71804
Source of the keplerian elements: AFSPC